DLH723 ZBAA-EDDM

Flight info

Callsign DLH723
Flight time N/A
Altitude 36100
Route IDKEX5Y IDKEX B339 ASILA A575 UPREK W28 LAGEB W66 NUKTI B215 IRPEP/K0891S1160 B215 KABDO W119 GOBOK A343 RULAD/K0889F380 M610 ARBOL Z621 GENDI N147 OTBOR/N0485F380 A480 TIMGA B476 NEBIT/N0490F400 B476 METKA L88 NIJAT N644 ADEKI DCT BADIR DCT LAGAS DCT FOQUS DCT SARPI UM10 GOKPA UL746 ODERO DCT LUGEB DCT MOPUG DCT SUNIS DCT AMADI Q113 NAPSA NAPSA1B
Aircraft A359/H-SADE2E3GHIJ1J2J3J4J5M1P2RWXYZ/LB1D1

Departure

Time N/A
Airport Beijing Capital International Airport (ZBAA)

Arrival

Time 2026-05-07 18:08
Airport Munich Airport (EDDM)
Time Latitude Longitude Altitude Speed Heading
2026-05-07 17:29 46.93385 17.35582 39984 ft 452 kts 283°
2026-05-07 17:29 46.94319 17.31173 39985 ft 452 kts 283°
2026-05-07 17:29 46.96183 17.22341 39990 ft 453 kts 283°
2026-05-07 17:30 46.98034 17.13535 39990 ft 453 kts 283°
2026-05-07 17:30 46.99871 17.04758 39982 ft 453 kts 283°
2026-05-07 17:31 47.01712 16.95925 39981 ft 453 kts 283°
2026-05-07 17:31 47.03537 16.87130 39981 ft 453 kts 283°
2026-05-07 17:32 47.05367 16.78271 39983 ft 453 kts 283°
2026-05-07 17:32 47.07190 16.69404 39983 ft 453 kts 283°
2026-05-07 17:33 47.08996 16.60583 39980 ft 453 kts 283°
2026-05-07 17:33 47.10811 16.51682 39985 ft 453 kts 283°
2026-05-07 17:34 47.12606 16.42832 39991 ft 454 kts 283°
2026-05-07 17:34 47.14547 16.34020 40003 ft 457 kts 288°
2026-05-07 17:35 47.17010 16.25348 40008 ft 459 kts 289°
2026-05-07 17:35 47.19542 16.16784 40017 ft 459 kts 289°
2026-05-07 17:36 47.22098 16.08147 40011 ft 459 kts 289°
2026-05-07 17:36 47.24637 15.99502 40009 ft 459 kts 289°
2026-05-07 17:37 47.27151 15.90890 40015 ft 460 kts 289°
2026-05-07 17:37 47.29675 15.82204 40016 ft 460 kts 289°
2026-05-07 17:38 47.32196 15.73501 40016 ft 460 kts 289°
2026-05-07 17:38 47.34692 15.64852 40017 ft 460 kts 289°
2026-05-07 17:39 47.37200 15.56134 40007 ft 460 kts 289°
2026-05-07 17:39 47.39688 15.47457 40006 ft 460 kts 288°
2026-05-07 17:40 47.42169 15.38773 40009 ft 460 kts 289°
2026-05-07 17:40 47.44660 15.30018 40029 ft 460 kts 288°
2026-05-07 17:41 47.47124 15.21320 40028 ft 460 kts 288°
2026-05-07 17:41 47.49599 15.12557 40037 ft 460 kts 288°
2026-05-07 17:42 47.52050 15.03850 40036 ft 461 kts 288°
2026-05-07 17:42 47.54515 14.95064 40027 ft 461 kts 288°
2026-05-07 17:43 47.56957 14.86321 40035 ft 461 kts 288°
2026-05-07 17:43 47.59409 14.77512 40038 ft 462 kts 288°
2026-05-07 17:44 47.61856 14.68689 40020 ft 461 kts 288°
2026-05-07 17:44 47.63058 14.64350 39519 ft 458 kts 288°
2026-05-07 17:44 47.64271 14.59959 38817 ft 459 kts 288°
2026-05-07 17:45 47.65482 14.55563 38123 ft 460 kts 288°
2026-05-07 17:45 47.66677 14.51216 37464 ft 460 kts 288°
2026-05-07 17:45 47.67885 14.46817 36782 ft 459 kts 287°
2026-05-07 17:45 47.69091 14.42420 36095 ft 458 kts 287°
2026-05-07 17:46 47.70295 14.38019 35386 ft 459 kts 287°
2026-05-07 17:46 47.71478 14.33688 34854 ft 455 kts 287°
2026-05-07 17:46 47.72665 14.29340 34337 ft 451 kts 287°
2026-05-07 17:46 47.73839 14.25033 33809 ft 447 kts 287°
2026-05-07 17:47 47.75001 14.20761 33285 ft 443 kts 286°
2026-05-07 17:47 47.76147 14.16539 32774 ft 438 kts 286°
2026-05-07 17:47 47.77285 14.12335 32266 ft 435 kts 286°
2026-05-07 17:47 47.78395 14.08218 31756 ft 432 kts 285°
2026-05-07 17:48 47.79505 14.04089 31255 ft 429 kts 285°
2026-05-07 17:48 47.80612 13.99978 30753 ft 426 kts 285°
2026-05-07 17:48 47.81715 13.95876 30239 ft 423 kts 285°
2026-05-07 17:48 47.82806 13.91812 29760 ft 421 kts 285°
2026-05-07 17:49 47.83875 13.87819 29261 ft 418 kts 285°
2026-05-07 17:49 47.84946 13.83813 28764 ft 415 kts 285°
2026-05-07 17:49 47.86007 13.79833 28275 ft 412 kts 285°
2026-05-07 17:49 47.87059 13.75876 27776 ft 408 kts 285°
2026-05-07 17:50 47.88111 13.71927 27281 ft 406 kts 285°
2026-05-07 17:50 47.89135 13.68072 26791 ft 403 kts 286°
2026-05-07 17:50 47.90166 13.64178 26294 ft 400 kts 286°
2026-05-07 17:50 47.91187 13.60317 25802 ft 398 kts 287°
2026-05-07 17:51 47.92185 13.56535 25306 ft 395 kts 287°
2026-05-07 17:51 47.93188 13.52732 24798 ft 392 kts 287°
2026-05-07 17:51 47.94180 13.48953 24302 ft 388 kts 287°
2026-05-07 17:51 47.95163 13.45219 23816 ft 385 kts 288°
2026-05-07 17:52 47.96139 13.41510 23326 ft 382 kts 288°
2026-05-07 17:52 47.97093 13.37874 22836 ft 378 kts 288°
2026-05-07 17:52 47.98049 13.34216 22346 ft 375 kts 288°
2026-05-07 17:52 47.98996 13.30589 21844 ft 372 kts 288°
2026-05-07 17:53 47.99930 13.27007 21368 ft 369 kts 288°
2026-05-07 17:53 48.00845 13.23488 20880 ft 366 kts 288°
2026-05-07 17:53 48.01767 13.19939 20396 ft 364 kts 288°
2026-05-07 17:53 48.02680 13.16418 19915 ft 362 kts 288°
2026-05-07 17:54 48.03585 13.12925 19434 ft 359 kts 288°
2026-05-07 17:54 48.04489 13.09434 18950 ft 356 kts 288°
2026-05-07 17:54 48.05369 13.06030 18486 ft 354 kts 288°
2026-05-07 17:54 48.06251 13.02610 17990 ft 351 kts 288°
2026-05-07 17:55 48.07127 12.99213 17535 ft 348 kts 288°
2026-05-07 17:55 48.07993 12.95846 17064 ft 345 kts 288°
2026-05-07 17:55 48.08797 12.92471 16595 ft 341 kts 283°
2026-05-07 17:55 48.09269 12.89075 16236 ft 335 kts 278°
2026-05-07 17:56 48.09640 12.85645 15806 ft 333 kts 277°
2026-05-07 17:56 48.09987 12.82235 15419 ft 329 kts 277°
2026-05-07 17:56 48.10540 12.78956 15018 ft 319 kts 288°
2026-05-07 17:56 48.11453 12.75899 14066 ft 327 kts 295°
2026-05-07 17:57 48.12534 12.72846 13003 ft 333 kts 296°
2026-05-07 17:57 48.13284 12.70797 12379 ft 340 kts 296°
2026-05-07 17:57 48.14744 12.66861 11796 ft 312 kts 297°
2026-05-07 17:57 48.15772 12.64097 11303 ft 297 kts 297°
2026-05-07 17:58 48.16764 12.61414 10613 ft 291 kts 297°
2026-05-07 17:58 48.17733 12.58794 10128 ft 290 kts 297°
2026-05-07 17:58 48.18702 12.56177 9780 ft 285 kts 297°
2026-05-07 17:58 48.19664 12.53574 9400 ft 282 kts 297°
2026-05-07 17:59 48.20606 12.51018 9062 ft 277 kts 297°
2026-05-07 17:59 48.21534 12.48498 8759 ft 276 kts 297°
2026-05-07 17:59 48.22453 12.46006 8454 ft 275 kts 297°
2026-05-07 17:59 48.23372 12.43510 8160 ft 273 kts 297°
2026-05-07 18:00 48.24292 12.41012 7857 ft 271 kts 297°
2026-05-07 18:00 48.25196 12.38557 7563 ft 270 kts 297°
2026-05-07 18:00 48.26102 12.36094 7263 ft 268 kts 297°
2026-05-07 18:00 48.27004 12.33637 6970 ft 267 kts 297°
2026-05-07 18:01 48.27886 12.31234 6679 ft 265 kts 298°
2026-05-07 18:01 48.28774 12.28810 6389 ft 264 kts 297°
2026-05-07 18:01 48.29657 12.26395 6084 ft 262 kts 298°
2026-05-07 18:01 48.30533 12.23998 5809 ft 261 kts 298°
2026-05-07 18:02 48.32263 12.19268 5381 ft 247 kts 298°
2026-05-07 18:02 48.33056 12.17099 5287 ft 233 kts 298°
2026-05-07 18:02 48.33818 12.15017 5193 ft 220 kts 298°
2026-05-07 18:03 48.34532 12.13053 5094 ft 208 kts 298°
2026-05-07 18:03 48.35210 12.11191 5009 ft 197 kts 298°
2026-05-07 18:03 48.35855 12.09423 4988 ft 191 kts 298°
2026-05-07 18:03 48.36367 12.07590 4960 ft 186 kts 281°
2026-05-07 18:04 48.36427 12.05742 4853 ft 175 kts 267°
2026-05-07 18:04 48.36289 12.03922 4580 ft 173 kts 263°
2026-05-07 18:04 48.36137 12.02140 4339 ft 169 kts 265°
2026-05-07 18:04 48.36004 12.00385 4084 ft 166 kts 265°
2026-05-07 18:05 48.35877 11.98699 3850 ft 162 kts 265°
2026-05-07 18:05 48.35747 11.97017 3641 ft 161 kts 265°
2026-05-07 18:05 48.35619 11.95341 3432 ft 160 kts 265°
2026-05-07 18:05 48.35491 11.93677 3217 ft 160 kts 265°
2026-05-07 18:06 48.35365 11.92019 3007 ft 160 kts 265°
2026-05-07 18:06 48.35240 11.90380 2786 ft 158 kts 265°
2026-05-07 18:06 48.35111 11.88737 2578 ft 155 kts 265°
2026-05-07 18:06 48.35000 11.87184 2383 ft 144 kts 264°
2026-05-07 18:07 48.34882 11.85716 2205 ft 139 kts 264°
2026-05-07 18:07 48.34768 11.84262 2015 ft 140 kts 264°
2026-05-07 18:07 48.34656 11.82825 1833 ft 139 kts 265°
2026-05-07 18:07 48.34549 11.81385 1644 ft 139 kts 265°
2026-05-07 18:08 48.34439 11.79936 1484 ft 136 kts 265°
2026-05-07 18:08 48.34352 11.78791 1485 ft 74 kts 263°
2026-05-07 18:08 48.34313 11.78286 1492 ft 40 kts 263°
2026-05-07 18:08 48.34339 11.77920 1490 ft 32 kts 290°
2026-05-07 18:09 48.34417 11.77642 1486 ft 17 kts 293°
2026-05-07 18:09 48.34453 11.77518 1480 ft 11 kts 295°
2026-05-07 18:09 48.34513 11.77446 1486 ft 12 kts 340°
2026-05-07 18:09 48.34596 11.77427 1481 ft 11 kts 360°
2026-05-07 18:10 48.34634 11.77508 1492 ft 11 kts 81°
2026-05-07 18:10 48.34642 11.77636 1488 ft 14 kts 84°
2026-05-07 18:10 48.34655 11.77791 1492 ft 16 kts 83°
2026-05-07 18:10 48.34669 11.77971 1485 ft 18 kts 83°
2026-05-07 18:11 48.34685 11.78171 1482 ft 20 kts 83°
2026-05-07 18:11 48.34696 11.78318 1490 ft 22 kts 83°
2026-05-07 18:11 48.34720 11.78632 1489 ft 24 kts 83°
2026-05-07 18:11 48.34740 11.78890 1489 ft 25 kts 84°
2026-05-07 18:12 48.34761 11.79162 1480 ft 27 kts 83°
2026-05-07 18:12 48.34775 11.79350 1492 ft 28 kts 84°
2026-05-07 18:12 48.34797 11.79524 1492 ft 10 kts 50°
2026-05-07 18:12 48.34892 11.79551 1484 ft 12 kts 352°
2026-05-07 18:13 48.34953 11.79540 1492 ft 14 kts 354°
2026-05-07 18:13 48.35054 11.79525 1492 ft 16 kts 353°
2026-05-07 18:13 48.35169 11.79503 1492 ft 18 kts 353°
2026-05-07 18:13 48.35298 11.79481 1492 ft 19 kts 353°
2026-05-07 18:14 48.35439 11.79456 1492 ft 21 kts 353°
2026-05-07 18:14 48.35544 11.79438 1492 ft 9 kts 353°
2026-05-07 18:14 48.35569 11.79387 1492 ft 7 kts 274°
2026-05-07 18:14 48.35561 11.79307 1492 ft 6 kts 262°
2026-05-07 18:15 48.35561 11.79303 1492 ft 0 kts 262°